Tracking 18793 objects as of 25-September-2017
HD Live streaming from Space Station
objects crossing your sky now

AMC-15

Track AMC-15 now!
AMC-15 is classified as:


NORAD ID: 28446
Int'l Code: 2004-041A
Perigee: 35,786.1 km
Apogee: 35,800.7 km
Inclination: 0.0 °
Period: 1,436.1 minutes
Semi major axis: 42164 km
RCS: 20.7825 m2 (large)
Launch date: October 14, 2004
Source: SOCIETE EUROPEENNE DES SATELLITES (SES)
Launch site: TYURATAM MISSILE AND SPACE COMPLEX (TTMTR)

Hybrid Ku-Ka-band satellite; CONUS, Alaska, Hawaii.
aabbcc
Your satellite tracking list
Your tracking list is empty





NASA's NSSDC Master Catalog

Two Line Element Set (TLE):
1 28446U 04041A   17268.20782302 -.00000106  00000-0  00000+0 0  9998
2 28446   0.0071 144.6353 0001740  39.4080 149.9522  1.00272990 47425
Source of the keplerian elements: AFSPC